When you browse on this site, cookies collect data to enhance your experience and personalize the content and advertising you see.
Visit our Privacy Policy to learn more. By continuing to use the site, you agree to this use of cookies and data.
  • In United Kingdom
  • List of Countries
  • For 7 days
  • Water Temperature
  • Weather Map
  • Weather Widgets
  • user-avatar
    Login

    Hourly Weather Göksun

    Today, 9 December, Monday

    Time Temperature Precipitation Wind Pressure Humidity
    00:00 0°C° 0 mm 1 mps 644 mmHg 56%
    01:00 0°C° 0 mm 1 mps 644 mmHg 57%
    02:00 0°C° 0 mm 1 mps 644 mmHg 56%
    03:00 0°C° 0 mm 1 mps 644 mmHg 56%
    04:00 0°C° 0 mm 1 mps 644 mmHg 57%
    05:00 0°C° 0 mm 1 mps 644 mmHg 57%
    06:00 0°C° 0 mm 1 mps 644 mmHg 57%
    07:00 +1°C° 0 mm 1 mps 644 mmHg 56%
    08:00 +1°C° 0 mm 1 mps 645 mmHg 57%
    09:00 +2°C° 0 mm 1 mps 645 mmHg 58%
    10:00 +3°C° 0 mm 1 mps 645 mmHg 58%
    11:00 +4°C° 0 mm 1 mps 645 mmHg 59%
    12:00 +4°C° 0 mm 1 mps 645 mmHg 63%
    13:00 +4°C° 0 mm 1 mps 645 mmHg 66%
    14:00 +3°C° 0 mm 2 mps 645 mmHg 65%
    15:00 +2°C° 0.1 mm 2 mps 644 mmHg 70%
    16:00 +1°C° 0.1 mm 2 mps 644 mmHg 76%
    17:00 -1°C° 0.1 mm 2 mps 644 mmHg 81%
    18:00 -1°C° 0.1 mm 2 mps 644 mmHg 83%
    19:00 -2°C° 0.1 mm 2 mps 644 mmHg 86%
    20:00 0°C° 0.1 mm 1 mps 645 mmHg 88%
    21:00 -2°C° 0.2 mm 2 mps 645 mmHg 89%
    22:00 -2°C° 0.2 mm 2 mps 645 mmHg 89%
    23:00 -2°C° 0.2 mm 2 mps 645 mmHg 90%

    Tomorrow, 10 December, Tuesday

    Time Temperature Precipitation Wind Pressure Humidity
    00:00 -2°C° 0 mm 2 mps 645 mmHg 90%
    01:00 0°C° 0 mm 1 mps 645 mmHg 90%
    02:00 0°C° 0 mm 1 mps 644 mmHg 89%
    03:00 0°C° 0 mm 1 mps 644 mmHg 90%
    04:00 0°C° 0 mm 1 mps 644 mmHg 90%
    05:00 -2°C° 0 mm 2 mps 644 mmHg 90%
    06:00 -2°C° 0 mm 2 mps 645 mmHg 89%
    07:00 -1°C° 0 mm 2 mps 645 mmHg 89%
    08:00 +1°C° 0 mm 1 mps 645 mmHg 88%
    09:00 +2°C° 0 mm 1 mps 645 mmHg 86%
    10:00 +3°C° 0 mm 1 mps 645 mmHg 84%
    11:00 +4°C° 0 mm 1 mps 645 mmHg 82%
    12:00 +4°C° 0 mm 1 mps 645 mmHg 82%
    13:00 +4°C° 0 mm 1 mps 645 mmHg 83%
    14:00 +4°C° 0 mm 1 mps 645 mmHg 83%
    15:00 +3°C° 0 mm 1 mps 645 mmHg 86%
    16:00 +3°C° 0 mm 1 mps 645 mmHg 89%
    17:00 +2°C° 0 mm 1 mps 645 mmHg 92%
    18:00 +1°C° 0 mm 1 mps 645 mmHg 92%
    19:00 +1°C° 0 mm 1 mps 645 mmHg 91%
    20:00 +1°C° 0 mm 1 mps 645 mmHg 91%
    21:00 +1°C° 0 mm 1 mps 645 mmHg 91%
    22:00 +1°C° 0 mm 1 mps 646 mmHg 90%
    23:00 +1°C° 0 mm 1 mps 646 mmHg 90%

    Day after tomorrow, 11 December, Wednesday

    Time Temperature Precipitation Wind Pressure Humidity
    00:00 +1°C° 0 mm 1 mps 646 mmHg 90%
    01:00 +1°C° 0 mm 1 mps 646 mmHg 90%
    02:00 +1°C° 0 mm 1 mps 646 mmHg 90%
    03:00 0°C° 0 mm 1 mps 646 mmHg 90%
    04:00 0°C° 0 mm 1 mps 645 mmHg 91%
    05:00 0°C° 0 mm 1 mps 645 mmHg 92%
    06:00 0°C° 0 mm 1 mps 646 mmHg 90%
    07:00 +1°C° 0 mm 1 mps 646 mmHg 88%
    08:00 +1°C° 0 mm 1 mps 646 mmHg 86%
    09:00 +2°C° 0 mm 1 mps 646 mmHg 83%
    10:00 +3°C° 0 mm 1 mps 646 mmHg 81%
    11:00 +4°C° 0 mm 1 mps 646 mmHg 78%
    12:00 +4°C° 0 mm 1 mps 646 mmHg 78%
    13:00 +5°C° 0 mm 1 mps 646 mmHg 78%
    14:00 +5°C° 0 mm 1 mps 646 mmHg 78%
    15:00 +4°C° 0 mm 1 mps 645 mmHg 82%
    16:00 +3°C° 0 mm 1 mps 645 mmHg 86%
    17:00 +2°C° 0 mm 1 mps 645 mmHg 90%
    18:00 +2°C° 0 mm 1 mps 645 mmHg 90%
    19:00 +2°C° 0 mm 1 mps 645 mmHg 91%
    20:00 +2°C° 0 mm 1 mps 646 mmHg 92%
    21:00 +2°C° 0.5 mm 1 mps 646 mmHg 93%
    22:00 +2°C° 0.5 mm 1 mps 645 mmHg 95%
    23:00 +2°C° 0.5 mm 1 mps 645 mmHg 96%

    12 December, Thursday

    Time Temperature Precipitation Wind Pressure Humidity
    00:00 +2°C° 0.6 mm 1 mps 645 mmHg 97%
    01:00 +2°C° 0.6 mm 1 mps 645 mmHg 97%
    02:00 +2°C° 0.6 mm 1 mps 644 mmHg 97%
    03:00 +2°C° 1.1 mm 1 mps 644 mmHg 97%
    04:00 +2°C° 1.1 mm 1 mps 643 mmHg 97%
    05:00 +2°C° 1.1 mm 1 mps 643 mmHg 98%
    06:00 +2°C° 0.5 mm 2 mps 643 mmHg 98%
    07:00 +2°C° 0.5 mm 2 mps 643 mmHg 98%
    08:00 +2°C° 0.5 mm 2 mps 643 mmHg 98%
    09:00 +2°C° 0.8 mm 2 mps 643 mmHg 98%
    10:00 +2°C° 0.8 mm 2 mps 642 mmHg 98%
    11:00 +2°C° 0.8 mm 2 mps 642 mmHg 98%
    12:00 +2°C° 0.8 mm 2 mps 641 mmHg 98%
    13:00 +3°C° 0.8 mm 1 mps 641 mmHg 99%
    14:00 +3°C° 0.8 mm 1 mps 640 mmHg 99%
    15:00 +3°C° 0.7 mm 1 mps 640 mmHg 99%
    16:00 +3°C° 0.7 mm 1 mps 640 mmHg 98%
    17:00 +3°C° 0.7 mm 1 mps 640 mmHg 98%
    18:00 +3°C° 0.5 mm 1 mps 640 mmHg 98%
    19:00 +3°C° 0.5 mm 1 mps 640 mmHg 98%
    20:00 +3°C° 0.5 mm 1 mps 640 mmHg 98%
    21:00 +3°C° 0.3 mm 1 mps 640 mmHg 98%
    22:00 +3°C° 0.3 mm 1 mps 640 mmHg 98%
    23:00 +3°C° 0.3 mm 1 mps 640 mmHg 98%

    13 December, Friday

    Time Temperature Precipitation Wind Pressure Humidity
    00:00 +3°C° 0.2 mm 1 mps 640 mmHg 98%
    01:00 +3°C° 0.2 mm 1 mps 640 mmHg 98%
    02:00 +3°C° 0.2 mm 1 mps 640 mmHg 98%
    03:00 +3°C° 0.1 mm 1 mps 640 mmHg 98%
    04:00 +2°C° 0.1 mm 0 mps 640 mmHg 98%
    05:00 +2°C° 0.1 mm 0 mps 640 mmHg 98%
    06:00 +2°C° 0.3 mm 0 mps 641 mmHg 98%
    07:00 +2°C° 0.3 mm 0 mps 641 mmHg 98%
    08:00 +2°C° 0.3 mm 0 mps 641 mmHg 98%
    09:00 +3°C° 0.1 mm 0 mps 642 mmHg 98%
    10:00 +4°C° 0.1 mm 1 mps 642 mmHg 98%
    11:00 +4°C° 0.1 mm 1 mps 642 mmHg 98%
    12:00 +4°C° 0.1 mm 1 mps 642 mmHg 98%
    13:00 +4°C° 0.1 mm 1 mps 641 mmHg 98%
    14:00 +4°C° 0.1 mm 1 mps 641 mmHg 98%
    15:00 +4°C° 0 mm 1 mps 641 mmHg 98%
    16:00 +4°C° 0 mm 1 mps 642 mmHg 98%
    17:00 +4°C° 0 mm 1 mps 642 mmHg 99%
    18:00 +4°C° 0 mm 1 mps 642 mmHg 98%
    19:00 +4°C° 0 mm 1 mps 643 mmHg 98%
    20:00 +4°C° 0 mm 1 mps 643 mmHg 98%
    21:00 +4°C° 0 mm 1 mps 643 mmHg 98%
    22:00 +4°C° 0 mm 1 mps 643 mmHg 98%
    23:00 +4°C° 0 mm 1 mps 644 mmHg 98%

    14 December, Saturday

    Time Temperature Precipitation Wind Pressure Humidity
    00:00 +4°C° 0.1 mm 1 mps 644 mmHg 98%
    01:00 +4°C° 0.1 mm 1 mps 644 mmHg 98%
    02:00 +4°C° 0.1 mm 1 mps 644 mmHg 98%
    03:00 +4°C° 0.1 mm 1 mps 643 mmHg 98%
    04:00 +4°C° 0.1 mm 1 mps 643 mmHg 98%
    05:00 +4°C° 0.1 mm 1 mps 643 mmHg 98%
    06:00 +4°C° 0.4 mm 1 mps 644 mmHg 98%
    07:00 +4°C° 0.4 mm 1 mps 644 mmHg 98%
    08:00 +4°C° 0.4 mm 1 mps 644 mmHg 98%
    09:00 +4°C° 0.4 mm 1 mps 644 mmHg 98%
    10:00 +3°C° 0.4 mm 2 mps 644 mmHg 98%
    11:00 +3°C° 0.4 mm 2 mps 644 mmHg 98%
    12:00 +4°C° 0.2 mm 1 mps 643 mmHg 98%
    13:00 +4°C° 0.2 mm 1 mps 643 mmHg 98%
    14:00 +4°C° 0.2 mm 1 mps 643 mmHg 98%
    15:00 +4°C° 0.3 mm 1 mps 643 mmHg 98%
    16:00 +4°C° 0.3 mm 1 mps 643 mmHg 98%
    17:00 +3°C° 0.3 mm 2 mps 643 mmHg 98%
    18:00 +3°C° 0.4 mm 2 mps 643 mmHg 98%
    19:00 +3°C° 0.4 mm 2 mps 643 mmHg 98%
    20:00 +3°C° 0.4 mm 2 mps 643 mmHg 98%
    21:00 +3°C° 0.2 mm 2 mps 643 mmHg 98%
    22:00 +3°C° 0.2 mm 2 mps 643 mmHg 98%
    23:00 +3°C° 0.2 mm 2 mps 643 mmHg 98%
    Show more